Location: Prague
(50.0830°N, 14.4670°E)
Time: 07:09:14
(UTC+01:00)

XW-2D - Visible Passes

Search period start: 05 December 2021 00:00
Search period end: 15 December 2021 00:00
Orbit: 504 x 521 km, 97.5° (Epoch: 04 December)

Date Brightness Start Highest point End Pass type
(mag) Time Alt. Az. Time Alt. Az. Time Alt. Az.
05 Dec ? 05:01:08 10° NE 05:03:20 15° E 05:05:30 10° SE visible
05 Dec ? 06:33:56 10° N 06:37:40 56° WNW 06:41:24 10° SSW visible
05 Dec ? 17:17:49 10° S 17:21:32 61° W 17:25:17 10° NNW visible
06 Dec ? 06:18:10 10° NNE 06:22:00 83° WNW 06:25:48 10° SSW visible
06 Dec ? 17:02:05 10° SSE 17:05:49 88° ENE 17:09:38 10° NNW visible
07 Dec ? 06:02:29 10° NNE 06:06:18 66° E 06:10:04 10° S visible
07 Dec ? 16:46:27 10° SSE 16:50:08 59° ENE 16:53:53 10° N visible
07 Dec ? 18:22:33 10° WSW 18:24:32 14° W 18:26:30 10° WNW visible
08 Dec ? 05:46:53 10° NNE 05:50:33 43° E 05:54:12 10° S visible
08 Dec ? 16:30:58 10° SE 16:34:29 39° ENE 16:38:03 10° N visible
08 Dec ? 18:05:52 10° SW 18:08:39 20° W 18:11:29 10° NW visible
09 Dec ? 05:31:23 10° NNE 05:34:46 29° E 05:38:08 10° SSE visible
09 Dec ? 07:05:28 10° N 07:08:43 27° WNW 07:11:56 10° SW visible
09 Dec ? 17:49:33 10° SSW 17:52:50 28° W 17:56:09 10° NW visible
10 Dec ? 05:16:02 10° NE 05:18:57 21° E 05:21:51 10° SE visible
10 Dec ? 06:49:32 10° N 06:53:05 38° WNW 06:56:37 10° SW visible
10 Dec ? 17:33:28 10° S 17:37:02 41° W 17:40:39 10° NNW visible
11 Dec ? 05:00:55 10° NE 05:03:05 15° E 05:05:14 10° SE visible
11 Dec ? 06:33:41 10° N 06:37:26 56° WNW 06:41:09 10° SSW visible
11 Dec ? 17:17:32 10° S 17:21:16 62° W 17:25:03 10° NNW visible
12 Dec ? 06:17:54 10° NNE 06:21:44 84° WNW 06:25:32 10° SSW visible
12 Dec ? 17:01:46 10° SSE 17:05:32 87° E 17:09:21 10° NNW visible
13 Dec ? 06:02:12 10° NNE 06:06:00 65° ESE 06:09:46 10° S visible
13 Dec ? 16:46:08 10° SSE 16:49:49 58° ENE 16:53:35 10° N visible
13 Dec ? 18:22:11 10° WSW 18:24:12 14° W 18:26:14 10° WNW visible
14 Dec ? 05:46:34 10° NNE 05:50:14 43° E 05:53:51 10° S visible
14 Dec ? 18:05:29 10° SW 18:08:19 20° W 18:11:10 10° NW visible
